Time,TemperatureF,DewpointF,PressureIn,WindDirection,WindDirectionDegrees,WindSpeedMPH,WindSpeedGustMPH,Humidity,HourlyPrecipIn,Conditions,Clouds,dailyrainin,SoftwareType,DateUTC
2013-02-05 00:02:00,37.6,29.2,29.98,NNE,22,0.0,0.0,71,0.00,,,0.00,WUHU21623XXSP,2013-02-05 05:02:00,
2013-02-05 00:15:00,37.6,29.1,29.98,NNE,22,0.0,0.0,71,0.00,,,0.00,WUHU21623XXSP,2013-02-05 05:15:00,
2013-02-05 00:20:00,37.4,28.9,29.98,NNE,22,0.0,0.0,71,0.00,,,0.00,WUHU21623XXSP,2013-02-05 05:20:00,
2013-02-05 00:25:00,37.4,28.9,29.97,NNE,22,0.0,0.0,71,0.00,,,0.00,WUHU21623XXSP,2013-02-05 05:25:00,
2013-02-05 00:30:00,37.6,29.1,29.97,NNE,22,0.0,0.0,71,0.00,,,0.00,WUHU21623XXSP,2013-02-05 05:30:00,
2013-02-05 00:35:00,37.6,29.1,29.97,NNE,22,0.0,0.0,71,0.00,,,0.00,WUHU21623XXSP,2013-02-05 05:35:00,
2013-02-05 00:40:00,37.6,29.1,29.97,NNE,22,0.0,0.0,71,0.00,,,0.00,WUHU21623XXSP,2013-02-05 05:40:00,
2013-02-05 00:45:00,37.4,29.1,29.97,NNE,22,0.0,0.0,71,0.00,,,0.00,WUHU21623XXSP,2013-02-05 05:45:00,
2013-02-05 00:50:00,37.4,28.9,29.97,NNE,22,0.0,0.0,71,0.00,,,0.00,WUHU21623XXSP,2013-02-05 05:50:00,
2013-02-05 00:55:00,37.4,28.9,29.97,NNE,22,0.0,0.0,71,0.00,,,0.00,WUHU21623XXSP,2013-02-05 05:55:00,
2013-02-05 01:00:00,37.4,28.7,29.97,NNE,22,0.0,0.0,71,0.00,,,0.00,WUHU21623XXSP,2013-02-05 06:00:00,
2013-02-05 01:05:00,37.4,28.9,29.97,NNE,22,0.0,0.0,71,0.00,,,0.00,WUHU21623XXSP,2013-02-05 06:05:00,
2013-02-05 01:11:00,37.2,29.0,29.97,NNE,22,0.0,0.0,72,0.00,,,0.00,WUHU21623XXSP,2013-02-05 06:11:00,
2013-02-05 01:16:00,37.2,28.7,29.97,NNE,22,0.0,0.0,71,0.00,,,0.00,WUHU21623XXSP,2013-02-05 06:16:00,
2013-02-05 01:21:00,37.0,28.7,29.97,NNE,22,0.0,0.0,71,0.00,,,0.00,WUHU21623XXSP,2013-02-05 06:21:00,
2013-02-05 01:26:00,36.9,28.4,29.97,NNE,22,0.0,0.0,71,0.00,,,0.00,WUHU21623XXSP,2013-02-05 06:26:00,
2013-02-05 01:32:00,36.7,28.8,29.97,NNE,22,0.0,0.0,73,0.00,,,0.00,WUHU21623XXSP,2013-02-05 06:32:00,
2013-02-05 01:37:00,36.3,28.1,29.96,NNE,22,0.0,0.0,72,0.00,,,0.00,WUHU21623XXSP,2013-02-05 06:37:00,
2013-02-05 01:42:00,36.3,28.5,29.96,NNE,22,0.0,0.0,73,0.00,,,0.00,WUHU21623XXSP,2013-02-05 06:42:00,
2013-02-05 01:47:00,36.3,28.5,29.96,NNE,22,0.0,0.0,73,0.00,,,0.00,WUHU21623XXSP,2013-02-05 06:47:00,
2013-02-05 01:52:00,36.3,28.5,29.96,NNE,22,0.0,0.0,73,0.00,,,0.00,WUHU21623XXSP,2013-02-05 06:52:00,
2013-02-05 01:57:00,36.3,28.5,29.97,NNE,22,0.0,0.0,73,0.00,,,0.00,WUHU21623XXSP,2013-02-05 06:57:00,
2013-02-05 02:04:00,36.3,28.8,29.97,NNE,22,0.0,0.0,74,0.00,,,0.00,WUHU21623XXSP,2013-02-05 07:04:00,
2013-02-05 02:09:00,36.3,28.8,29.97,NNE,22,0.0,0.0,74,0.00,,,0.00,WUHU21623XXSP,2013-02-05 07:09:00,
2013-02-05 02:15:00,36.3,28.8,29.97,NNE,22,0.0,0.0,74,0.00,,,0.00,WUHU21623XXSP,2013-02-05 07:15:00,
2013-02-05 02:20:00,36.3,28.8,29.97,NNE,22,0.0,0.0,74,0.00,,,0.00,WUHU21623XXSP,2013-02-05 07:20:00,
2013-02-05 02:25:00,36.5,29.0,29.97,NNE,22,0.0,0.0,74,0.00,,,0.00,WUHU21623XXSP,2013-02-05 07:25:00,
2013-02-05 02:30:00,36.5,29.0,29.97,NNE,22,0.0,0.0,74,0.00,,,0.00,WUHU21623XXSP,2013-02-05 07:30:00,
2013-02-05 02:35:00,36.5,29.0,29.97,NNE,22,0.0,0.0,74,0.00,,,0.00,WUHU21623XXSP,2013-02-05 07:35:00,
2013-02-05 02:40:00,36.3,28.8,29.96,NNE,22,0.0,0.0,74,0.00,,,0.00,WUHU21623XXSP,2013-02-05 07:40:00,
2013-02-05 02:45:00,36.3,29.1,29.96,NNE,22,0.0,0.0,75,0.00,,,0.00,WUHU21623XXSP,2013-02-05 07:45:00,
2013-02-05 02:50:00,36.1,28.9,29.96,NNE,22,0.0,0.0,75,0.00,,,0.00,WUHU21623XXSP,2013-02-05 07:50:00,
2013-02-05 02:55:00,36.0,28.9,29.96,NNE,22,0.0,0.0,75,0.00,,,0.00,WUHU21623XXSP,2013-02-05 07:55:00,
2013-02-05 03:00:00,35.8,28.9,29.95,NNE,22,0.0,0.0,76,0.00,,,0.00,WUHU21623XXSP,2013-02-05 08:00:00,
2013-02-05 03:05:00,35.8,29.2,29.95,NNE,22,0.0,0.0,77,0.00,,,0.00,WUHU21623XXSP,2013-02-05 08:05:00,
2013-02-05 03:10:00,35.8,29.2,29.95,NNE,22,0.0,0.0,77,0.00,,,0.00,WUHU21623XXSP,2013-02-05 08:10:00,
2013-02-05 03:15:00,35.8,29.2,29.95,NNE,22,0.0,0.0,77,0.00,,,0.00,WUHU21623XXSP,2013-02-05 08:15:00,
2013-02-05 03:20:00,35.8,29.2,29.95,NNE,22,0.0,0.0,77,0.00,,,0.00,WUHU21623XXSP,2013-02-05 08:20:00,
2013-02-05 03:26:00,35.8,29.2,29.95,NNE,22,0.0,0.0,77,0.00,,,0.00,WUHU21623XXSP,2013-02-05 08:26:00,
2013-02-05 03:31:00,35.8,29.2,29.95,NNE,22,0.0,0.0,77,0.00,,,0.00,WUHU21623XXSP,2013-02-05 08:31:00,
2013-02-05 03:36:00,35.8,29.2,29.94,NNE,22,0.0,0.0,77,0.00,,,0.00,WUHU21623XXSP,2013-02-05 08:36:00,
2013-02-05 03:41:00,36.0,29.4,29.94,NNE,22,0.0,0.0,77,0.00,,,0.00,WUHU21623XXSP,2013-02-05 08:41:00,
2013-02-05 03:46:00,36.0,29.4,29.94,NNE,22,0.0,0.0,77,0.00,,,0.00,WUHU21623XXSP,2013-02-05 08:46:00,
2013-02-05 03:51:00,36.1,29.9,29.95,NNE,22,0.0,0.0,78,0.00,,,0.00,WUHU21623XXSP,2013-02-05 08:51:00,
2013-02-05 03:56:00,36.1,29.9,29.95,NNE,22,0.0,0.0,78,0.00,,,0.00,WUHU21623XXSP,2013-02-05 08:56:00,
2013-02-05 04:01:00,36.1,29.9,29.95,NNE,22,0.0,0.0,78,0.00,,,0.00,WUHU21623XXSP,2013-02-05 09:01:00,
2013-02-05 04:06:00,36.3,30.1,29.95,NNE,22,0.0,0.0,78,0.00,,,0.00,WUHU21623XXSP,2013-02-05 09:06:00,
2013-02-05 04:11:00,36.3,29.8,29.95,NNE,22,0.0,0.0,77,0.00,,,0.00,WUHU21623XXSP,2013-02-05 09:11:00,
2013-02-05 04:17:00,36.3,29.8,29.95,NNE,22,0.0,0.0,77,0.00,,,0.00,WUHU21623XXSP,2013-02-05 09:17:00,
2013-02-05 04:22:00,36.3,29.8,29.95,NNE,22,0.0,0.0,77,0.00,,,0.00,WUHU21623XXSP,2013-02-05 09:22:00,
2013-02-05 04:27:00,36.3,29.8,29.95,NNE,22,0.0,0.0,77,0.00,,,0.00,WUHU21623XXSP,2013-02-05 09:27:00,
2013-02-05 04:32:00,36.3,29.8,29.95,NNE,22,0.0,0.0,77,0.00,,,0.00,WUHU21623XXSP,2013-02-05 09:32:00,
2013-02-05 04:37:00,36.3,29.8,29.95,NNE,22,0.0,0.0,77,0.00,,,0.00,WUHU21623XXSP,2013-02-05 09:37:00,
2013-02-05 04:42:00,36.3,29.8,29.95,NNE,22,0.0,0.0,77,0.00,,,0.00,WUHU21623XXSP,2013-02-05 09:42:00,
2013-02-05 04:47:00,36.3,29.9,29.95,NNE,22,0.0,0.0,77,0.00,,,0.00,WUHU21623XXSP,2013-02-05 09:47:00,
2013-02-05 04:52:00,36.5,29.9,29.95,NNE,22,0.0,0.0,77,0.00,,,0.00,WUHU21623XXSP,2013-02-05 09:52:00,
2013-02-05 04:57:00,36.5,29.9,29.96,NNE,22,0.0,0.0,77,0.00,,,0.00,WUHU21623XXSP,2013-02-05 09:57:00,
2013-02-05 05:02:00,36.5,29.9,29.96,NNE,22,0.0,0.0,77,0.00,,,0.00,WUHU21623XXSP,2013-02-05 10:02:00,
2013-02-05 05:07:00,36.5,29.9,29.96,NNE,22,0.0,0.0,77,0.00,,,0.00,WUHU21623XXSP,2013-02-05 10:07:00,
2013-02-05 05:12:00,36.5,29.9,29.96,NNE,22,0.0,0.0,77,0.00,,,0.00,WUHU21623XXSP,2013-02-05 10:12:00,
2013-02-05 05:17:00,36.5,29.9,29.96,NNE,22,0.0,0.0,77,0.00,,,0.00,WUHU21623XXSP,2013-02-05 10:17:00,
2013-02-05 05:22:00,36.7,30.1,29.96,NNE,22,0.0,0.0,77,0.00,,,0.00,WUHU21623XXSP,2013-02-05 10:22:00,
2013-02-05 05:27:00,36.7,30.1,29.96,NNE,22,0.0,0.0,77,0.00,,,0.00,WUHU21623XXSP,2013-02-05 10:27:00,
2013-02-05 05:32:00,36.7,30.1,29.96,NNE,22,0.0,0.0,77,0.00,,,0.00,WUHU21623XXSP,2013-02-05 10:32:00,
2013-02-05 05:37:00,36.5,29.9,29.96,NNE,22,0.0,0.0,77,0.00,,,0.00,WUHU21623XXSP,2013-02-05 10:37:00,
2013-02-05 05:42:00,36.5,29.9,29.97,NNE,22,0.0,0.0,77,0.00,,,0.00,WUHU21623XXSP,2013-02-05 10:42:00,
2013-02-05 05:47:00,36.5,29.9,29.97,NNE,22,0.0,0.0,77,0.00,,,0.00,WUHU21623XXSP,2013-02-05 10:47:00,
2013-02-05 05:52:00,36.5,30.3,29.96,NNE,22,0.0,0.0,78,0.00,,,0.00,WUHU21623XXSP,2013-02-05 10:52:00,
2013-02-05 05:57:00,36.5,30.3,29.96,NNE,22,0.0,0.0,78,0.00,,,0.00,WUHU21623XXSP,2013-02-05 10:57:00,
2013-02-05 06:02:00,36.5,30.3,29.96,NNE,22,0.0,0.0,78,0.00,,,0.00,WUHU21623XXSP,2013-02-05 11:02:00,
2013-02-05 06:07:00,36.3,30.1,29.96,NNE,22,0.0,0.0,78,0.00,,,0.00,WUHU21623XXSP,2013-02-05 11:07:00,
2013-02-05 06:12:00,36.3,30.3,29.95,NNE,22,0.0,0.0,78,0.00,,,0.00,WUHU21623XXSP,2013-02-05 11:12:00,
2013-02-05 06:17:00,36.5,30.3,29.96,NNE,22,0.0,0.0,78,0.00,,,0.00,WUHU21623XXSP,2013-02-05 11:17:00,
2013-02-05 06:22:00,36.5,30.6,29.97,NNE,22,0.0,0.0,79,0.00,,,0.00,WUHU21623XXSP,2013-02-05 11:22:00,
2013-02-05 06:27:00,36.5,30.6,29.97,NNE,22,0.0,0.0,79,0.00,,,0.00,WUHU21623XXSP,2013-02-05 11:27:00,
2013-02-05 06:32:00,36.7,30.8,29.97,NNE,22,0.0,0.0,79,0.00,,,0.00,WUHU21623XXSP,2013-02-05 11:32:00,
2013-02-05 06:38:00,36.9,31.0,29.97,NNE,22,0.0,0.0,79,0.00,,,0.00,WUHU21623XXSP,2013-02-05 11:38:00,
2013-02-05 06:43:00,36.9,31.0,29.97,NNE,22,0.0,0.0,79,0.00,,,0.00,WUHU21623XXSP,2013-02-05 11:43:00,
2013-02-05 06:48:00,37.0,31.1,29.97,NNE,22,0.0,0.0,79,0.00,,,0.00,WUHU21623XXSP,2013-02-05 11:48:00,
2013-02-05 06:53:00,37.0,31.1,29.97,NNE,22,0.0,0.0,79,0.00,,,0.00,WUHU21623XXSP,2013-02-05 11:53:00,
2013-02-05 06:58:00,37.0,31.1,29.97,NNE,22,0.0,0.0,79,0.00,,,0.00,WUHU21623XXSP,2013-02-05 11:58:00,
2013-02-05 07:03:00,36.9,31.0,29.97,NNE,22,0.0,0.0,79,0.00,,,0.00,WUHU21623XXSP,2013-02-05 12:03:00,
2013-02-05 07:09:00,36.9,31.0,29.97,NNE,22,0.0,0.0,79,0.00,,,0.00,WUHU21623XXSP,2013-02-05 12:09:00,
2013-02-05 07:14:00,36.7,31.1,29.97,NNE,22,0.0,0.0,80,0.00,,,0.00,WUHU21623XXSP,2013-02-05 12:14:00,
2013-02-05 07:19:00,36.7,31.1,29.98,NNE,22,0.0,0.0,80,0.00,,,0.00,WUHU21623XXSP,2013-02-05 12:19:00,
2013-02-05 07:24:00,36.7,31.1,29.98,NNE,22,0.0,0.0,80,0.00,,,0.00,WUHU21623XXSP,2013-02-05 12:24:00,
2013-02-05 07:29:00,36.7,31.1,29.97,NNE,22,0.0,0.0,80,0.00,,,0.00,WUHU21623XXSP,2013-02-05 12:29:00,
2013-02-05 07:34:00,36.7,31.4,29.98,NNE,22,0.0,0.0,81,0.00,,,0.00,WUHU21623XXSP,2013-02-05 12:34:00,
2013-02-05 07:39:00,36.7,31.4,29.98,NNE,22,0.0,0.0,81,0.00,,,0.00,WUHU21623XXSP,2013-02-05 12:39:00,
2013-02-05 07:44:00,36.7,31.4,29.99,NNE,22,0.0,0.0,81,0.00,,,0.00,WUHU21623XXSP,2013-02-05 12:44:00,
2013-02-05 07:49:00,36.7,31.4,29.98,NNE,22,0.0,0.0,81,0.00,,,0.00,WUHU21623XXSP,2013-02-05 12:49:00,
2013-02-05 07:54:00,36.9,31.6,29.98,NNE,22,0.0,0.0,81,0.00,,,0.00,WUHU21623XXSP,2013-02-05 12:54:00,
2013-02-05 07:59:00,36.9,31.6,29.98,NNE,22,0.0,0.0,81,0.00,,,0.00,WUHU21623XXSP,2013-02-05 12:59:00,
2013-02-05 08:04:00,36.9,31.7,29.98,NNE,22,0.0,0.0,81,0.00,,,0.00,WUHU21623XXSP,2013-02-05 13:04:00,
2013-02-05 08:09:00,36.9,31.6,29.98,NNE,22,0.0,0.0,81,0.00,,,0.00,WUHU21623XXSP,2013-02-05 13:09:00,
2013-02-05 08:14:00,37.0,31.9,29.99,NNE,22,0.0,0.0,82,0.00,,,0.00,WUHU21623XXSP,2013-02-05 13:14:00,
2013-02-05 08:19:00,37.2,32.0,29.99,NNE,22,0.0,0.0,82,0.00,,,0.00,WUHU21623XXSP,2013-02-05 13:19:00,
2013-02-05 08:24:00,37.0,32.0,29.99,NNE,22,0.0,0.0,82,0.00,,,0.00,WUHU21623XXSP,2013-02-05 13:24:00,
2013-02-05 08:29:00,37.2,32.2,29.99,NNE,22,0.0,0.0,82,0.00,,,0.00,WUHU21623XXSP,2013-02-05 13:29:00,
2013-02-05 08:34:00,37.2,32.2,29.99,NNE,22,0.0,0.0,82,0.00,,,0.00,WUHU21623XXSP,2013-02-05 13:34:00,
2013-02-05 08:39:00,37.2,32.2,29.99,NNE,22,0.0,0.0,82,0.00,,,0.00,WUHU21623XXSP,2013-02-05 13:39:00,
2013-02-05 08:44:00,37.2,32.2,30.00,NNE,22,0.0,0.0,82,0.00,,,0.00,WUHU21623XXSP,2013-02-05 13:44:00,
2013-02-05 08:50:00,37.4,32.4,30.00,NNE,22,0.0,0.0,82,0.00,,,0.00,WUHU21623XXSP,2013-02-05 13:50:00,
2013-02-05 08:55:00,37.4,32.4,30.00,NNE,22,0.0,0.0,82,0.00,,,0.00,WUHU21623XXSP,2013-02-05 13:55:00,
2013-02-05 09:00:00,37.6,32.6,30.00,NNE,22,0.0,0.0,82,0.00,,,0.00,WUHU21623XXSP,2013-02-05 14:00:00,
2013-02-05 09:05:00,37.6,32.6,30.00,NNE,22,0.0,0.0,82,0.00,,,0.00,WUHU21623XXSP,2013-02-05 14:05:00,
2013-02-05 09:10:00,37.8,32.9,30.00,NNE,22,0.0,0.0,83,0.00,,,0.00,WUHU21623XXSP,2013-02-05 14:10:00,
2013-02-05 09:15:00,37.9,33.2,30.00,NNE,22,0.0,0.0,83,0.00,,,0.00,WUHU21623XXSP,2013-02-05 14:15:00,
2013-02-05 09:20:00,37.9,33.2,30.00,NNE,22,0.0,0.0,83,0.00,,,0.00,WUHU21623XXSP,2013-02-05 14:20:00,
2013-02-05 09:25:00,38.1,33.1,30.00,NNE,22,0.0,0.0,82,0.00,,,0.00,WUHU21623XXSP,2013-02-05 14:25:00,
2013-02-05 09:30:00,38.3,33.1,30.00,NNE,22,0.0,0.0,82,0.00,,,0.00,WUHU21623XXSP,2013-02-05 14:30:00,
2013-02-05 09:35:00,38.5,33.5,30.00,NNE,22,0.0,0.0,82,0.00,,,0.00,WUHU21623XXSP,2013-02-05 14:35:00,
2013-02-05 09:40:00,38.5,33.5,30.00,NNE,22,0.0,0.0,82,0.00,,,0.00,WUHU21623XXSP,2013-02-05 14:40:00,
2013-02-05 09:45:00,38.8,33.8,30.00,NNE,22,0.0,0.0,82,0.00,,,0.00,WUHU21623XXSP,2013-02-05 14:45:00,
2013-02-05 09:50:00,38.8,33.8,30.00,NNE,22,0.0,0.0,82,0.00,,,0.00,WUHU21623XXSP,2013-02-05 14:50:00,
2013-02-05 09:55:00,38.8,33.8,30.00,NNE,22,0.0,0.0,82,0.00,,,0.00,WUHU21623XXSP,2013-02-05 14:55:00,
2013-02-05 10:00:00,39.0,34.0,30.00,NNE,22,0.0,0.0,82,0.00,,,0.00,WUHU21623XXSP,2013-02-05 15:00:00,
2013-02-05 10:05:00,39.0,34.0,30.00,NNE,22,0.0,0.0,82,0.00,,,0.00,WUHU21623XXSP,2013-02-05 15:05:00,
2013-02-05 10:11:00,39.4,33.9,30.01,NNE,22,0.0,0.0,81,0.00,,,0.00,WUHU21623XXSP,2013-02-05 15:11:00,
2013-02-05 10:16:00,39.4,34.1,30.01,NNE,22,0.0,0.0,81,0.00,,,0.00,WUHU21623XXSP,2013-02-05 15:16:00,
2013-02-05 10:21:00,39.4,34.1,30.01,NNE,22,0.0,0.0,81,0.00,,,0.00,WUHU21623XXSP,2013-02-05 15:21:00,
2013-02-05 10:26:00,39.4,34.1,30.01,NNE,22,0.0,0.0,81,0.00,,,0.00,WUHU21623XXSP,2013-02-05 15:26:00,
2013-02-05 10:32:00,39.6,34.2,30.02,NNE,22,0.0,0.0,81,0.00,,,0.00,WUHU21623XXSP,2013-02-05 15:32:00,
2013-02-05 10:37:00,39.7,34.2,30.01,NNE,22,0.0,0.0,81,0.00,,,0.00,WUHU21623XXSP,2013-02-05 15:37:00,
2013-02-05 10:44:00,39.9,34.6,30.02,NNE,22,0.0,0.0,81,0.00,,,0.00,WUHU21623XXSP,2013-02-05 15:44:00,
2013-02-05 10:49:00,39.9,34.6,30.02,NNE,22,0.0,0.0,81,0.00,,,0.00,WUHU21623XXSP,2013-02-05 15:49:00,
2013-02-05 10:54:00,40.1,34.7,30.02,NNE,22,0.0,0.0,80,0.00,,,0.00,WUHU21623XXSP,2013-02-05 15:54:00,
2013-02-05 10:59:00,40.1,34.4,30.02,NNE,22,0.0,0.0,80,0.00,,,0.00,WUHU21623XXSP,2013-02-05 15:59:00,
2013-02-05 11:05:00,40.3,34.6,30.02,NNE,22,0.0,0.0,80,0.00,,,0.00,WUHU21623XXSP,2013-02-05 16:05:00,
2013-02-05 11:10:00,40.8,35.1,30.02,NNE,22,0.0,0.0,80,0.00,,,0.00,WUHU21623XXSP,2013-02-05 16:10:00,
2013-02-05 11:15:00,40.8,35.1,30.02,NNE,22,0.0,0.0,80,0.00,,,0.00,WUHU21623XXSP,2013-02-05 16:15:00,
2013-02-05 11:20:00,41.2,35.4,30.03,NNE,22,0.0,0.0,80,0.00,,,0.00,WUHU21623XXSP,2013-02-05 16:20:00,
2013-02-05 11:26:00,41.5,35.8,30.02,NNE,22,0.0,0.0,80,0.00,,,0.00,WUHU21623XXSP,2013-02-05 16:26:00,
2013-02-05 11:31:00,41.9,36.0,30.02,NNE,22,0.0,0.0,79,0.00,,,0.00,WUHU21623XXSP,2013-02-05 16:31:00,
2013-02-05 11:36:00,42.4,36.0,30.02,NNE,22,0.0,0.0,79,0.00,,,0.00,WUHU21623XXSP,2013-02-05 16:36:00,
2013-02-05 11:41:00,43.0,36.5,30.02,NNE,22,0.0,0.0,79,0.00,,,0.00,WUHU21623XXSP,2013-02-05 16:41:00,
2013-02-05 11:46:00,43.5,36.9,30.02,NNE,22,0.0,0.0,78,0.00,,,0.00,WUHU21623XXSP,2013-02-05 16:46:00,
2013-02-05 11:51:00,43.9,37.4,30.02,NNE,22,0.0,0.0,78,0.00,,,0.00,WUHU21623XXSP,2013-02-05 16:51:00,
2013-02-05 11:56:00,44.2,37.3,30.02,NNE,22,0.0,0.0,77,0.00,,,0.00,WUHU21623XXSP,2013-02-05 16:56:00,
2013-02-05 12:01:00,45.0,37.8,30.02,NNE,22,0.0,0.0,77,0.00,,,0.00,WUHU21623XXSP,2013-02-05 17:01:00,
2013-02-05 12:06:00,45.3,38.4,30.02,NNE,22,0.0,0.0,77,0.00,,,0.00,WUHU21623XXSP,2013-02-05 17:06:00,
2013-02-05 12:11:00,45.7,38.9,30.02,NNE,22,0.0,0.0,77,0.00,,,0.00,WUHU21623XXSP,2013-02-05 17:11:00,
2013-02-05 12:16:00,46.4,38.6,30.01,NNE,22,0.0,0.0,74,0.00,,,0.00,WUHU21623XXSP,2013-02-05 17:16:00,
2013-02-05 12:21:00,46.8,38.8,30.01,NNE,22,0.0,0.0,74,0.00,,,0.00,WUHU21623XXSP,2013-02-05 17:21:00,
2013-02-05 12:26:00,47.5,39.2,30.01,NNE,22,0.0,0.0,73,0.00,,,0.00,WUHU21623XXSP,2013-02-05 17:26:00,
2013-02-05 12:31:00,47.8,39.2,30.01,NNE,22,0.0,0.0,72,0.00,,,0.00,WUHU21623XXSP,2013-02-05 17:31:00,
2013-02-05 12:36:00,48.0,39.2,30.01,NNE,22,0.0,0.0,72,0.00,,,0.00,WUHU21623XXSP,2013-02-05 17:36:00,
2013-02-05 12:41:00,48.7,39.7,30.01,NNE,22,0.0,0.0,71,0.00,,,0.00,WUHU21623XXSP,2013-02-05 17:41:00,
2013-02-05 12:49:00,49.6,40.3,30.00,NNE,22,0.0,0.0,70,0.00,,,0.00,WUHU21623XXSP,2013-02-05 17:49:00,
2013-02-05 12:54:00,49.8,40.1,30.00,NNE,22,0.0,0.0,69,0.00,,,0.00,WUHU21623XXSP,2013-02-05 17:54:00,
2013-02-05 12:59:00,49.8,40.1,30.00,NNE,22,0.0,0.0,69,0.00,,,0.00,WUHU21623XXSP,2013-02-05 17:59:00,
2013-02-05 13:04:00,49.8,40.1,30.00,NNE,22,0.0,0.0,69,0.00,,,0.00,WUHU21623XXSP,2013-02-05 18:04:00,
2013-02-05 13:09:00,50.7,40.6,30.00,NNE,22,0.0,0.0,69,0.00,,,0.00,WUHU21623XXSP,2013-02-05 18:09:00,
2013-02-05 13:14:00,51.6,41.7,29.99,NNE,22,0.0,0.0,69,0.00,,,0.00,WUHU21623XXSP,2013-02-05 18:14:00,
2013-02-05 13:19:00,52.2,41.5,29.99,NNE,22,0.0,0.0,67,0.00,,,0.00,WUHU21623XXSP,2013-02-05 18:19:00,
2013-02-05 13:24:00,52.5,41.9,29.99,NNE,22,0.0,0.0,67,0.00,,,0.00,WUHU21623XXSP,2013-02-05 18:24:00,
2013-02-05 13:30:00,52.5,41.6,29.98,NNE,22,0.0,0.0,66,0.00,,,0.00,WUHU21623XXSP,2013-02-05 18:30:00,
2013-02-05 13:35:00,52.5,41.9,29.98,NNE,22,0.0,0.0,67,0.00,,,0.00,WUHU21623XXSP,2013-02-05 18:35:00,
2013-02-05 13:40:00,52.5,41.5,29.98,NNE,22,0.0,0.0,66,0.00,,,0.00,WUHU21623XXSP,2013-02-05 18:40:00,
2013-02-05 13:45:00,52.3,41.3,29.97,NNE,22,0.0,0.0,66,0.00,,,0.00,WUHU21623XXSP,2013-02-05 18:45:00,
2013-02-05 13:50:00,52.3,41.3,29.97,NNE,22,0.0,0.0,66,0.00,,,0.00,WUHU21623XXSP,2013-02-05 18:50:00,
2013-02-05 13:55:00,52.5,41.3,29.97,NNE,22,0.0,0.0,66,0.00,,,0.00,WUHU21623XXSP,2013-02-05 18:55:00,
2013-02-05 14:00:00,52.9,41.4,29.97,NNE,22,0.0,0.0,65,0.00,,,0.00,WUHU21623XXSP,2013-02-05 19:00:00,
2013-02-05 14:05:00,53.8,42.2,29.97,NNE,22,0.0,0.0,65,0.00,,,0.00,WUHU21623XXSP,2013-02-05 19:05:00,
2013-02-05 14:10:00,53.8,41.8,29.97,NNE,22,0.0,0.0,64,0.00,,,0.00,WUHU21623XXSP,2013-02-05 19:10:00,
2013-02-05 14:15:00,54.1,42.2,29.96,NNE,22,0.0,0.0,64,0.00,,,0.00,WUHU21623XXSP,2013-02-05 19:15:00,
2013-02-05 14:20:00,54.7,42.5,29.97,NNE,22,0.0,0.0,63,0.00,,,0.00,WUHU21623XXSP,2013-02-05 19:20:00,
2013-02-05 14:25:00,55.0,42.2,29.96,NNE,22,0.0,0.0,62,0.00,,,0.00,WUHU21623XXSP,2013-02-05 19:25:00,
2013-02-05 14:31:00,55.2,42.4,29.96,NNE,22,3.1,3.1,62,0.00,,,0.00,WUHU21623XXSP,2013-02-05 19:31:00,
2013-02-05 14:36:00,55.4,42.1,29.96,NNE,22,0.0,3.1,61,0.00,,,0.00,WUHU21623XXSP,2013-02-05 19:36:00,
2013-02-05 14:41:00,55.4,42.1,29.96,NW,315,0.0,0.0,61,0.00,,,0.00,WUHU21623XXSP,2013-02-05 19:41:00,
2013-02-05 14:46:00,56.1,42.7,29.96,NNW,337,0.0,0.0,61,0.00,,,0.00,WUHU21623XXSP,2013-02-05 19:46:00,
2013-02-05 14:51:00,56.8,43.6,29.96,NNE,22,0.0,0.0,61,0.00,,,0.00,WUHU21623XXSP,2013-02-05 19:51:00,
2013-02-05 14:56:00,57.2,43.3,29.95,NNE,22,0.0,0.0,60,0.00,,,0.00,WUHU21623XXSP,2013-02-05 19:56:00,
2013-02-05 15:01:00,57.6,43.4,29.95,NNE,22,0.0,0.0,59,0.00,,,0.00,WUHU21623XXSP,2013-02-05 20:01:00,
2013-02-05 15:06:00,57.9,43.2,29.96,NNE,22,0.0,0.0,58,0.00,,,0.00,WUHU21623XXSP,2013-02-05 20:06:00,
2013-02-05 15:11:00,58.1,43.2,29.95,ENE,67,0.0,0.0,58,0.00,,,0.00,WUHU21623XXSP,2013-02-05 20:11:00,
2013-02-05 15:16:00,58.5,43.1,29.96,WSW,247,0.0,0.0,57,0.00,,,0.00,WUHU21623XXSP,2013-02-05 20:16:00,
2013-02-05 15:22:00,58.8,43.6,29.95,South,180,4.0,4.0,57,0.00,,,0.00,WUHU21623XXSP,2013-02-05 20:22:00,
2013-02-05 15:27:00,59.2,43.4,29.95,SW,225,0.0,4.0,56,0.00,,,0.00,WUHU21623XXSP,2013-02-05 20:27:00,
2013-02-05 15:32:00,59.4,43.6,29.95,SW,225,0.0,0.0,56,0.00,,,0.00,WUHU21623XXSP,2013-02-05 20:32:00,
2013-02-05 15:37:00,58.8,43.1,29.95,SW,225,0.0,0.0,56,0.00,,,0.00,WUHU21623XXSP,2013-02-05 20:37:00,
2013-02-05 15:42:00,59.0,43.3,29.95,SW,225,0.0,0.0,56,0.00,,,0.00,WUHU21623XXSP,2013-02-05 20:42:00,
2013-02-05 15:47:00,58.8,42.6,29.95,WSW,247,0.0,0.0,55,0.00,,,0.00,WUHU21623XXSP,2013-02-05 20:47:00,
2013-02-05 15:52:00,58.8,42.6,29.95,WSW,247,0.0,0.0,55,0.00,,,0.00,WUHU21623XXSP,2013-02-05 20:52:00,
2013-02-05 15:57:00,58.8,42.2,29.94,WSW,247,0.0,0.0,54,0.00,,,0.00,WUHU21623XXSP,2013-02-05 20:57:00,
2013-02-05 16:03:00,59.0,42.2,29.94,WSW,247,0.0,0.0,54,0.00,,,0.00,WUHU21623XXSP,2013-02-05 21:03:00,
2013-02-05 16:08:00,59.2,42.0,29.94,WSW,247,0.0,0.0,53,0.00,,,0.00,WUHU21623XXSP,2013-02-05 21:08:00,
2013-02-05 16:14:00,58.8,41.7,29.95,NNW,337,0.0,0.0,53,0.00,,,0.00,WUHU21623XXSP,2013-02-05 21:14:00,
2013-02-05 16:19:00,58.8,41.7,29.94,NW,315,0.0,0.0,53,0.00,,,0.00,WUHU21623XXSP,2013-02-05 21:19:00,
2013-02-05 16:25:00,59.4,42.2,29.95,WNW,292,0.0,0.0,53,0.00,,,0.00,WUHU21623XXSP,2013-02-05 21:25:00,
2013-02-05 16:30:00,59.4,42.2,29.94,WNW,292,0.0,0.0,53,0.00,,,0.00,WUHU21623XXSP,2013-02-05 21:30:00,
2013-02-05 16:36:00,59.4,41.7,29.94,West,270,0.0,0.0,52,0.00,,,0.00,WUHU21623XXSP,2013-02-05 21:36:00,
2013-02-05 16:41:00,58.8,41.2,29.94,West,270,0.0,0.0,52,0.00,,,0.00,WUHU21623XXSP,2013-02-05 21:41:00,
2013-02-05 16:46:00,58.8,41.2,29.95,WNW,292,0.0,0.0,52,0.00,,,0.00,WUHU21623XXSP,2013-02-05 21:46:00,
2013-02-05 16:51:00,58.5,41.1,29.94,WNW,292,0.0,0.0,53,0.00,,,0.00,WUHU21623XXSP,2013-02-05 21:51:00,
2013-02-05 16:56:00,57.9,41.1,29.94,WNW,292,0.0,0.0,53,0.00,,,0.00,WUHU21623XXSP,2013-02-05 21:56:00,
2013-02-05 17:01:00,57.7,40.9,29.95,West,270,0.0,0.0,53,0.00,,,0.00,WUHU21623XXSP,2013-02-05 22:01:00,
2013-02-05 17:06:00,57.6,41.0,29.95,West,270,0.0,0.0,54,0.00,,,0.00,WUHU21623XXSP,2013-02-05 22:06:00,
2013-02-05 17:11:00,57.4,40.9,29.95,West,270,0.0,0.0,54,0.00,,,0.00,WUHU21623XXSP,2013-02-05 22:11:00,
2013-02-05 17:17:00,57.0,40.5,29.95,West,270,0.0,0.0,54,0.00,,,0.00,WUHU21623XXSP,2013-02-05 22:17:00,
2013-02-05 17:22:00,56.3,40.0,29.95,West,270,0.0,0.0,54,0.00,,,0.00,WUHU21623XXSP,2013-02-05 22:22:00,
2013-02-05 17:27:00,56.1,39.3,29.95,West,270,0.0,0.0,53,0.00,,,0.00,WUHU21623XXSP,2013-02-05 22:27:00,
2013-02-05 17:32:00,55.8,38.8,29.95,West,270,0.0,0.0,53,0.00,,,0.00,WUHU21623XXSP,2013-02-05 22:32:00,
2013-02-05 17:37:00,55.2,38.6,29.95,West,270,0.0,0.0,54,0.00,,,0.00,WUHU21623XXSP,2013-02-05 22:37:00,
2013-02-05 17:42:00,55.0,38.8,29.95,West,270,0.0,0.0,54,0.00,,,0.00,WUHU21623XXSP,2013-02-05 22:42:00,
2013-02-05 17:47:00,54.7,38.3,29.95,West,270,0.0,0.0,54,0.00,,,0.00,WUHU21623XXSP,2013-02-05 22:47:00,
2013-02-05 17:52:00,54.1,38.4,29.95,West,270,0.0,0.0,55,0.00,,,0.00,WUHU21623XXSP,2013-02-05 22:52:00,
2013-02-05 17:57:00,53.8,37.9,29.95,West,270,0.0,0.0,55,0.00,,,0.00,WUHU21623XXSP,2013-02-05 22:57:00,
2013-02-05 18:02:00,53.4,37.8,29.95,West,270,0.0,0.0,55,0.00,,,0.00,WUHU21623XXSP,2013-02-05 23:02:00,
2013-02-05 18:07:00,52.9,37.4,29.95,West,270,0.0,0.0,55,0.00,,,0.00,WUHU21623XXSP,2013-02-05 23:07:00,
2013-02-05 18:12:00,52.7,37.1,29.96,West,270,0.0,0.0,56,0.00,,,0.00,WUHU21623XXSP,2013-02-05 23:12:00,
2013-02-05 18:17:00,52.3,37.0,29.96,West,270,0.0,0.0,56,0.00,,,0.00,WUHU21623XXSP,2013-02-05 23:17:00,
2013-02-05 18:22:00,51.6,36.3,29.96,West,270,0.0,0.0,56,0.00,,,0.00,WUHU21623XXSP,2013-02-05 23:22:00,
2013-02-05 18:27:00,51.4,36.2,29.96,West,270,0.0,0.0,56,0.00,,,0.00,WUHU21623XXSP,2013-02-05 23:27:00,
2013-02-05 18:32:00,51.1,36.3,29.96,West,270,0.0,0.0,57,0.00,,,0.00,WUHU21623XXSP,2013-02-05 23:32:00,
2013-02-05 18:37:00,50.7,36.0,29.96,West,270,0.0,0.0,58,0.00,,,0.00,WUHU21623XXSP,2013-02-05 23:37:00,
2013-02-05 18:42:00,50.5,36.3,29.96,West,270,0.0,0.0,58,0.00,,,0.00,WUHU21623XXSP,2013-02-05 23:42:00,
2013-02-05 18:47:00,50.4,36.1,29.97,West,270,0.0,0.0,58,0.00,,,0.00,WUHU21623XXSP,2013-02-05 23:47:00,
2013-02-05 18:53:00,50.2,36.4,29.97,West,270,0.0,0.0,59,0.00,,,0.00,WUHU21623XXSP,2013-02-05 23:53:00,
2013-02-05 18:58:00,49.8,36.0,29.97,West,270,0.0,0.0,59,0.00,,,0.00,WUHU21623XXSP,2013-02-05 23:58:00,
2013-02-05 19:03:00,49.3,35.6,29.97,West,270,0.0,0.0,59,0.00,,,0.00,WUHU21623XXSP,2013-02-06 00:03:00,
2013-02-05 19:08:00,48.9,35.4,29.97,West,270,0.0,0.0,59,0.00,,,0.00,WUHU21623XXSP,2013-02-06 00:08:00,
2013-02-05 19:13:00,48.6,35.5,29.97,West,270,0.0,0.0,60,0.00,,,0.00,WUHU21623XXSP,2013-02-06 00:13:00,
2013-02-05 19:18:00,48.4,35.6,29.98,West,270,0.0,0.0,61,0.00,,,0.00,WUHU21623XXSP,2013-02-06 00:18:00,
2013-02-05 19:23:00,48.0,35.8,29.98,West,270,0.0,0.0,62,0.00,,,0.00,WUHU21623XXSP,2013-02-06 00:23:00,
2013-02-05 19:28:00,48.0,36.0,29.98,West,270,0.0,0.0,63,0.00,,,0.00,WUHU21623XXSP,2013-02-06 00:28:00,
2013-02-05 19:33:00,47.8,35.8,29.98,West,270,0.0,0.0,63,0.00,,,0.00,WUHU21623XXSP,2013-02-06 00:33:00,
2013-02-05 19:38:00,47.5,35.9,29.98,West,270,0.0,0.0,64,0.00,,,0.00,WUHU21623XXSP,2013-02-06 00:38:00,
2013-02-05 19:43:00,47.3,35.7,29.98,West,270,0.0,0.0,64,0.00,,,0.00,WUHU21623XXSP,2013-02-06 00:43:00,
2013-02-05 19:48:00,47.1,35.9,29.99,West,270,0.0,0.0,65,0.00,,,0.00,WUHU21623XXSP,2013-02-06 00:48:00,
2013-02-05 19:53:00,46.9,36.1,29.99,West,270,0.0,0.0,66,0.00,,,0.00,WUHU21623XXSP,2013-02-06 00:53:00,
2013-02-05 19:58:00,46.8,36.4,29.98,West,270,0.0,0.0,67,0.00,,,0.00,WUHU21623XXSP,2013-02-06 00:58:00,
2013-02-05 20:03:00,46.6,36.2,29.99,West,270,0.0,0.0,68,0.00,,,0.00,WUHU21623XXSP,2013-02-06 01:03:00,
2013-02-05 20:08:00,46.2,36.6,29.99,West,270,0.0,0.0,69,0.00,,,0.00,WUHU21623XXSP,2013-02-06 01:08:00,
2013-02-05 20:13:00,46.2,36.6,29.99,West,270,0.0,0.0,69,0.00,,,0.00,WUHU21623XXSP,2013-02-06 01:13:00,
2013-02-05 20:18:00,46.0,36.5,29.99,West,270,0.0,0.0,70,0.00,,,0.00,WUHU21623XXSP,2013-02-06 01:18:00,
2013-02-05 20:23:00,45.9,36.9,29.99,West,270,0.0,0.0,70,0.00,,,0.00,WUHU21623XXSP,2013-02-06 01:23:00,
2013-02-05 20:28:00,45.7,36.8,29.99,West,270,0.0,0.0,71,0.00,,,0.00,WUHU21623XXSP,2013-02-06 01:28:00,
2013-02-05 20:33:00,45.5,36.7,29.99,West,270,0.0,0.0,71,0.00,,,0.00,WUHU21623XXSP,2013-02-06 01:33:00,
2013-02-05 20:38:00,45.3,36.7,30.00,West,270,0.0,0.0,71,0.00,,,0.00,WUHU21623XXSP,2013-02-06 01:38:00,
2013-02-05 20:43:00,45.1,37.0,30.00,West,270,0.0,0.0,73,0.00,,,0.00,WUHU21623XXSP,2013-02-06 01:43:00,
2013-02-05 20:48:00,45.0,37.0,30.00,West,270,0.0,0.0,73,0.00,,,0.00,WUHU21623XXSP,2013-02-06 01:48:00,
2013-02-05 20:53:00,45.0,36.8,30.00,West,270,0.0,0.0,73,0.00,,,0.00,WUHU21623XXSP,2013-02-06 01:53:00,
2013-02-05 20:58:00,44.8,37.0,30.00,West,270,0.0,0.0,74,0.00,,,0.00,WUHU21623XXSP,2013-02-06 01:58:00,
2013-02-05 21:03:00,44.4,37.1,30.00,West,270,0.0,0.0,75,0.00,,,0.00,WUHU21623XXSP,2013-02-06 02:03:00,
2013-02-05 21:08:00,44.2,36.8,30.00,West,270,0.0,0.0,75,0.00,,,0.00,WUHU21623XXSP,2013-02-06 02:08:00,
2013-02-05 21:13:00,43.9,36.8,30.00,West,270,0.0,0.0,75,0.00,,,0.00,WUHU21623XXSP,2013-02-06 02:13:00,
2013-02-05 21:18:00,43.5,36.1,30.00,West,270,0.0,0.0,75,0.00,,,0.00,WUHU21623XXSP,2013-02-06 02:18:00,
2013-02-05 21:23:00,43.3,36.4,30.01,West,270,0.0,0.0,76,0.00,,,0.00,WUHU21623XXSP,2013-02-06 02:23:00,
2013-02-05 21:29:00,43.0,36.1,30.01,West,270,0.0,0.0,76,0.00,,,0.00,WUHU21623XXSP,2013-02-06 02:29:00,
2013-02-05 21:34:00,42.6,35.9,30.01,West,270,0.0,0.0,76,0.00,,,0.00,WUHU21623XXSP,2013-02-06 02:34:00,
2013-02-05 21:39:00,42.4,35.4,30.01,West,270,0.0,0.0,76,0.00,,,0.00,WUHU21623XXSP,2013-02-06 02:39:00,
2013-02-05 21:44:00,42.1,35.0,30.02,West,270,0.0,0.0,76,0.00,,,0.00,WUHU21623XXSP,2013-02-06 02:44:00,
2013-02-05 21:49:00,41.5,34.5,30.02,West,270,0.0,0.0,76,0.00,,,0.00,WUHU21623XXSP,2013-02-06 02:49:00,
2013-02-05 21:54:00,41.2,34.3,30.02,West,270,0.0,0.0,76,0.00,,,0.00,WUHU21623XXSP,2013-02-06 02:54:00,
2013-02-05 21:59:00,40.8,33.9,30.02,West,270,0.0,0.0,77,0.00,,,0.00,WUHU21623XXSP,2013-02-06 02:59:00,
2013-02-05 22:04:00,40.6,33.9,30.02,West,270,0.0,0.0,77,0.00,,,0.00,WUHU21623XXSP,2013-02-06 03:04:00,
2013-02-05 22:09:00,40.3,33.6,30.02,West,270,0.0,0.0,77,0.00,,,0.00,WUHU21623XXSP,2013-02-06 03:09:00,
2013-02-05 22:14:00,39.9,33.6,30.02,West,270,0.0,0.0,78,0.00,,,0.00,WUHU21623XXSP,2013-02-06 03:14:00,
2013-02-05 22:20:00,39.7,33.4,30.03,West,270,0.0,0.0,78,0.00,,,0.00,WUHU21623XXSP,2013-02-06 03:20:00,
2013-02-05 22:25:00,39.4,33.1,30.03,West,270,0.0,0.0,78,0.00,,,0.00,WUHU21623XXSP,2013-02-06 03:25:00,
2013-02-05 22:30:00,39.0,33.1,30.02,West,270,0.0,0.0,78,0.00,,,0.00,WUHU21623XXSP,2013-02-06 03:30:00,
2013-02-05 22:35:00,39.0,33.1,30.03,West,270,0.0,0.0,79,0.00,,,0.00,WUHU21623XXSP,2013-02-06 03:35:00,
2013-02-05 22:40:00,38.8,32.9,30.03,West,270,0.0,0.0,79,0.00,,,0.00,WUHU21623XXSP,2013-02-06 03:40:00,
2013-02-05 22:45:00,38.5,32.9,30.03,West,270,0.0,0.0,79,0.00,,,0.00,WUHU21623XXSP,2013-02-06 03:45:00,
2013-02-05 22:50:00,38.3,32.6,30.03,West,270,0.0,0.0,79,0.00,,,0.00,WUHU21623XXSP,2013-02-06 03:50:00,
2013-02-05 22:55:00,38.1,32.2,30.03,West,270,0.0,0.0,79,0.00,,,0.00,WUHU21623XXSP,2013-02-06 03:55:00,
2013-02-05 23:00:00,37.9,32.2,30.03,West,270,0.0,0.0,80,0.00,,,0.00,WUHU21623XXSP,2013-02-06 04:00:00,
2013-02-05 23:05:00,37.9,32.4,30.03,West,270,0.0,0.0,80,0.00,,,0.00,WUHU21623XXSP,2013-02-06 04:05:00,
2013-02-05 23:10:00,37.9,32.6,30.03,West,270,0.0,0.0,81,0.00,,,0.00,WUHU21623XXSP,2013-02-06 04:10:00,
2013-02-05 23:15:00,37.8,32.5,30.03,West,270,0.0,0.0,81,0.00,,,0.00,WUHU21623XXSP,2013-02-06 04:15:00,
2013-02-05 23:20:00,37.6,32.5,30.03,West,270,0.0,0.0,81,0.00,,,0.00,WUHU21623XXSP,2013-02-06 04:20:00,
2013-02-05 23:25:00,37.6,32.3,30.04,West,270,0.0,0.0,81,0.00,,,0.00,WUHU21623XXSP,2013-02-06 04:25:00,
2013-02-05 23:30:00,37.6,32.6,30.04,West,270,0.0,0.0,82,0.00,,,0.00,WUHU21623XXSP,2013-02-06 04:30:00,
2013-02-05 23:35:00,37.6,32.6,30.03,West,270,0.0,0.0,82,0.00,,,0.00,WUHU21623XXSP,2013-02-06 04:35:00,
2013-02-05 23:40:00,37.4,32.4,30.03,West,270,0.0,0.0,82,0.00,,,0.00,WUHU21623XXSP,2013-02-06 04:40:00,
2013-02-05 23:45:00,37.2,32.5,30.03,West,270,0.0,0.0,83,0.00,,,0.00,WUHU21623XXSP,2013-02-06 04:45:00,
2013-02-05 23:50:00,37.2,32.5,30.04,West,270,0.0,0.0,83,0.00,,,0.00,WUHU21623XXSP,2013-02-06 04:50:00,
2013-02-05 23:55:00,37.0,32.5,30.03,West,270,0.0,0.0,83,0.00,,,0.00,WUHU21623XXSP,2013-02-06 04:55:00,